Regional Weather Roundup
Issued by NWS Charleston, SC

Current Version | Previous Version | Graphics & Text | Print | Product List | Glossary On
Versions: 1 2 3 4 5 6 7 8 9 10 11 12 13 14 15 16 17 18 19 20 21 22 23 24 25 26 27 28 29 30 31 32 33 34 35 36 37 38 39 40 41 42 43 44 45 46 47 48 49 50
000
ASUS42 KCHS 100425
RWRCHS

REGIONAL WEATHER ROUNDUP
NATIONAL WEATHER SERVICE CHARLESTON SC
1200 AM EDT THU JUL 10 2014

NOTE: "FAIR" INDICATES FEW OR NO CLOUDS BELOW 12,000 FEET WITH NO
SIGNIFICANT WEATHER AND/OR OBSTRUCTIONS TO VISIBILITY.

NOT ALL STATIONS ARE QUALITY CONTROLLED BY THE NATIONAL
WEATHER SERVICE. USE DATA WITH CAUTION...ESPECIALLY
DEWPOINT OBSERVATIONS.

SCZ027-030-031-034>040-042>050-100500-
...SOUTH CAROLINA...

CITY           SKY/WX    TMP DP  RH WIND       PRES   REMARKS
N CHARLESTON   MOCLDY    82  75  79 S9        30.05R
WATERFRONT PRK   N/A     82 N/A N/A S13G20      N/A
FORT JOHNSON   NOT AVBL
MOUNT PLEASANT FAIR      82  77  83 SW8       30.05S HX  91
JOHNS ISLAND   PTCLDY    82  73  74 SW12      30.05S
PINOPOLIS        N/A     82  72  69 S5        29.95R
MONCKS CORNER    N/A     79  75  89 CALM      30.05R
SUMMERVILLE    FAIR      77  73  88 CALM      30.06R
BEAUFORT MCAS  CLEAR     82  77  84 VRB6      30.04S HX  90
BEAUFORT ARPT  NOT AVBL
HILTON HEAD IS CLEAR     82  79  89 S12       30.06S HX  93
GEORGETOWN     NOT AVBL
WALTERBORO     PTCLDY    77 N/A N/A CALM      30.06R
ORANGEBURG     PTCLDY    76  71  85 CALM      30.05R
BARNWELL       FAIR      75  72  88 CALM      30.05S
AIKEN          FAIR      72  72 100 SW3       30.09R
MANNING        MOCLDY    82  72  69 SW6       30.05R
KINGSTREE      NOT AVBL
COLUMBIA       LGT RAIN  78  72  81 CALM      30.03S
SUMTER         CLOUDY    78  70  75 SW3       30.03R
FLORENCE       MOCLDY    80  72  76 S7        30.03S
MYRTLE BEACH   CLEAR     81  72  74 S13       30.06R
N MYRTLE BEACH CLEAR     81  73  76 SW18      30.04S

$$

GAZ063-065-086>088-099>101-113>116-118-119-134-136>141-150-100500-
...GEORGIA...

CITY           SKY/WX    TMP DP  RH WIND       PRES   REMARKS
SAVANNAH ARPT  PTCLDY    81  76  84 S6        30.06R
HUNTER AAF     CLEAR     81  77  88 S8        30.04R
FORT STEWART   PTCLDY    80  74  82 W8        30.07R
STATESBORO     NOT AVBL
SYLVANIA       CLEAR     78  75  90 CALM      30.05S
CLAXTON        MOCLDY    81  70  69 W6        30.07R
THOMSON        CLOUDY    75  74  96 W7        30.10S
AUGUSTA-BUSH   CLOUDY    75  71  87 N3        30.04R
AUGUSTA-DANIEL CLOUDY    77  70  79 S6        30.06R
SWAINSBORO     FAIR      77  72  83 W3        30.08S
VIDALIA          N/A     79  68  69 SW8       30.07F
ALMA           CLEAR     75  67  76 SW3       30.08R
WAYCROSS       CLEAR     78  73  84 W3        30.08S
JESUP          NOT AVBL
BRUNSWICK      MOCLDY    81  70  69 SW6       30.08S
SAINT SIMONS   CLEAR     81  72  74 SW8       30.08R

$$

SCZ027-028-034-036>038-045-046-048>050-GAZ119-141-100500-
...LAKE AND SUPPLEMENTAL COASTAL OBSERVATIONS...

STATION/POSITION TIME  TEMP    WIND        PRES    WAVE   SWELL
                       AIR SEA DIR/SP/G            HT/PER HT/PER/DIR
                 (UTC) (F)     (DEG/KT/KT) (MB)    (FT/S) (FT/S/D)
UPR LAKE MARION  NOT AVBL
WINYAH BAY       0400   81     210/  9     1017.0S
LAKE MURRAY      0400   78     190/  6/  9 1016.9R
ACE BASIN NERRS  0400   82     190/  1     1017.0S
FORT PULASKI     0400   82 78  190/  7/ 15   N/A
SAPELO ISLAND    0400   82     220/ 11     1019.0R

$$

ANZ835-935-AMZ111-154-330-350-352-354-374-450-454-472-100500-
...C-MAN AND BUOY OBSERVATIONS...

STATION/POSITION TIME  TEMP    WIND        PRES    WAVE   SWELL
                       AIR SEA DIR/SP/G            HT/PER HT/PER/DIR
                 (UTC) (F)     (DEG/KT/KT) (MB)    (FT/S) (FT/S/D)
FOLLY BEACH CMAN 0400   82     200/ 17/ 22 1018.1R
BUOY 41004       0400   82 81  200/ 16/ 19 1017.3R   5/ 5   2/ 8
BUOY 41008       0400   83 84  190/ 17/ 21 1017.8R   5/ 5   2/120/ 9
5E ST. MARYS GA  0400      83                N/A     4/ 5
FRYING PAN BUOY  NOT AVBL
BUOY 41025       0400          VRB 17/ 19  1018.5R   5/ 6   2/130/ 8
CAPE LOOKOUT NC  0400   81     200/ 12/ 15 1018.3R
BUOY 41002       0254   80 81  200/ 16/ 19 1021.5    4/ 9   2/130/ 9
BUOY 41010       0400   81 83  170/ 12/ 14 1020.1F   3/ 8   2/120/ 8
BUOY 41012       NOT AVBL
ST AUGUSTINE FL  0400   78     230/  5/  7 1019.3S
CAPERS NEARSHORE 0300   82     230/ 19/ 23   N/A
FRIPP NEARSHORE  0300   83     210/ 17/ 21   N/A


$$



USA.gov is the U.S. government's official web portal to all federal, state and local government web resources and services.